Satellite-Ground Cal/Val Region Overpasses Predictions

Prediction of Satellite NPP Overpassing Cal/Val Region: PacNW

Region Location: (Latitude: 10.00, Longitude: 139.50) to (Latitude: 22.70, Longitude: 165.60).

Table of predicted overpasses for the next 14.0 days since TLE Epoch: 6/5/2020
Interval Starting Time Starting Location Ending Time Ending Location
1 06/06/2020 02:45:15 ( 10.05, 158.34) 06/06/2020 02:48:50 ( 22.67, 155.34)
2 06/06/2020 15:17:08 ( 22.67, 155.58) 06/06/2020 15:20:43 ( 10.04, 152.58)
3 06/07/2020 02:26:13 ( 10.03, 163.10) 06/07/2020 02:29:48 ( 22.65, 160.10)
4 06/07/2020 14:58:06 ( 22.69, 160.35) 06/07/2020 15:01:42 ( 10.01, 157.33)
5 06/08/2020 02:09:55 ( 19.70, 165.59) 06/08/2020 02:10:46 ( 22.69, 164.85)
6 06/08/2020 03:48:40 ( 10.02, 142.49) 06/08/2020 03:52:14 ( 22.58, 139.50)
7 06/08/2020 14:39:04 ( 22.65, 165.10) 06/08/2020 14:42:39 ( 10.03, 162.09)
8 06/08/2020 16:20:33 ( 22.70, 139.74) 06/08/2020 16:20:49 ( 21.76, 139.50)
9 06/09/2020 03:29:39 ( 10.06, 147.24) 06/09/2020 03:33:14 ( 22.68, 144.24)
10 06/09/2020 16:01:32 ( 22.66, 144.49) 06/09/2020 16:05:07 ( 10.04, 141.48)
11 06/10/2020 03:10:36 ( 10.04, 152.01) 06/10/2020 03:14:11 ( 22.66, 149.00)
12 06/10/2020 15:42:29 ( 22.68, 149.25) 06/10/2020 15:46:05 ( 10.00, 146.23)
13 06/11/2020 02:51:34 ( 10.02, 156.77) 06/11/2020 02:55:10 ( 22.70, 153.75)
14 06/11/2020 15:23:27 ( 22.70, 154.01) 06/11/2020 15:27:03 ( 10.02, 151.00)
15 06/12/2020 02:32:32 ( 10.06, 161.52) 06/12/2020 02:36:07 ( 22.68, 158.52)
16 06/12/2020 15:04:25 ( 22.66, 158.76) 06/12/2020 15:08:00 ( 10.04, 155.76)
17 06/13/2020 02:14:21 ( 13.04, 165.60) 06/13/2020 02:17:05 ( 22.66, 163.28)
18 06/13/2020 03:55:00 ( 10.05, 140.91) 06/13/2020 03:56:43 ( 16.10, 139.50)
19 06/13/2020 14:45:23 ( 22.68, 163.53) 06/13/2020 14:48:58 ( 10.06, 160.52)
20 06/14/2020 03:35:58 ( 10.03, 145.67) 06/14/2020 03:39:33 ( 22.65, 142.67)
21 06/14/2020 14:29:32 ( 11.43, 165.60) 06/14/2020 14:29:56 ( 10.02, 165.27)
22 06/14/2020 16:07:50 ( 22.69, 142.92) 06/14/2020 16:11:26 ( 10.01, 139.90)
23 06/15/2020 03:16:55 ( 10.01, 150.44) 06/15/2020 03:20:31 ( 22.69, 147.42)
24 06/15/2020 15:48:49 ( 22.65, 147.67) 06/15/2020 15:52:24 ( 10.03, 144.66)
25 06/16/2020 02:57:54 ( 10.05, 155.19) 06/16/2020 03:01:29 ( 22.67, 152.18)
26 06/16/2020 15:29:46 ( 22.67, 152.43) 06/16/2020 15:33:21 ( 10.05, 149.43)
27 06/17/2020 02:38:51 ( 10.03, 159.95) 06/17/2020 02:42:26 ( 22.66, 156.95)
28 06/17/2020 15:10:44 ( 22.69, 157.19) 06/17/2020 15:14:20 ( 10.01, 154.18)
29 06/18/2020 02:19:49 ( 10.02, 164.71) 06/18/2020 02:23:25 ( 22.70, 161.70)
30 06/18/2020 14:51:42 ( 22.64, 161.94) 06/18/2020 14:55:17 ( 10.03, 158.94)
31 06/19/2020 03:42:16 ( 10.01, 144.10) 06/19/2020 03:45:52 ( 22.69, 141.08)
32 06/19/2020 14:33:57 ( 18.15, 165.60) 06/19/2020 14:36:15 ( 10.04, 163.70)


NCC Satellite Cal/Val Overpasses Prediction Service
